#timestamp,LO_Frequency,Hit 
1502830815.9,286047002.4,N
1502830835.7,286046999.8,N
1502830855.6,286047002.7,N
1502830875.4,286047001.5,N
1502830895.2,286047002.8,N
1502830915.1,286046999.8,N
1502830916.0,286046999.8,N
1502830935.8,286047000.4,N
1502830955.6,286047001.9,N
1502830975.4,286047003.9,N
1502830995.3,286047002.1,N
1502831015.1,286047002.1,N
1502831035.8,286047003.8,N
1502831055.7,286047003.9,N
1502831075.5,286047003.9,N
1502831095.3,286047003.4,N
1502831115.2,286047007.4,P
1502831135.0,286047002.7,N
1502831135.9,286047002.7,N
1502831155.7,286047002.6,N
1502831175.6,286047002.0,N
1502831195.4,286047003.0,N
1502831215.2,286047006.0,P
1502831235.1,286046999.4,N
1502831236.0,286046999.4,N
1502831255.8,286046998.2,N
1502831275.6,286047003.4,N
1502831295.5,286047005.8,N
1502831315.3,286047001.4,N
1502831335.1,286047002.1,N
1502831355.9,286047001.9,N
1502831375.7,286047002.5,N
1502831395.5,286047002.2,N
1502831415.4,286047000.5,N
1502831435.2,286047000.4,N
1502831455.0,286047000.2,N
1502831455.9,286047000.2,N
1502831475.8,286047007.0,P
1502831495.6,286047001.4,N
1502831515.4,286047002.2,N
1502831535.3,286047001.4,N
1502831555.1,286047001.7,N
1502831556.0,286047001.7,N
1502831575.8,286047001.9,N
1502831595.7,286047001.5,N
1502831615.5,286047002.6,N
1502831635.3,286047000.4,N
1502831655.2,286047000.5,N
1502831675.9,286047001.0,N
1502831695.7,286047000.9,N
1502831715.5,286047000.0,N
1502831735.4,286047001.5,N
1502831755.2,286047003.2,N
1502831775.0,286047003.4,N
1502831775.9,286047003.4,N
1502831795.8,286047001.8,N
1502831815.6,286047004.2,N
1502831835.4,286047003.4,N
1502831855.3,286047001.4,N
1502831875.1,286047005.5,P
1502831895.8,286047001.8,N
1502831915.7,286047002.5,N
1502831935.5,286046999.8,N
1502831955.3,286047002.6,N
1502831975.2,286046999.8,N
1502831995.9,286047002.5,N
1502832015.7,286047002.4,N
1502832035.6,286047002.6,N
1502832055.4,286047002.3,N
1502832075.2,286047002.5,N
1502832095.0,286047002.8,N
1502832095.9,286047002.8,N
1502832115.8,286047004.0,P
1502832135.6,286047000.4,N
1502832155.5,286046999.8,N
1502832175.3,286047000.5,N
1502832195.1,286047000.0,N
1502832215.8,286046998.6,N
1502832235.7,286046999.9,N
1502832255.5,286047004.4,N
1502832275.3,286047002.3,N
1502832295.2,286047002.8,N
1502832315.9,286047002.7,N
1502832335.7,286047002.6,N
1502832355.6,286047004.3,N
1502832375.4,286047001.7,N
1502832395.2,286047002.0,N
1502832415.1,286047001.9,N
1502832416.0,286047001.9,N
1502832435.8,286047003.2,N
1502832455.6,286047004.0,N
1502832475.4,286047001.7,N
1502832495.3,286047005.8,P
1502832515.1,286047002.5,N
1502832535.9,286047002.7,N
1502832555.7,286046999.7,N
1502832575.5,286047000.2,N
1502832595.3,286047001.8,N
1502832615.2,286047002.4,N
1502832635.0,286046999.7,N
1502832635.9,286046999.7,N
1502832655.7,286047002.3,N
1502832675.6,286047001.5,N
1502832695.4,286047003.9,N
1502832715.2,286047003.9,N
1502832735.1,286047004.8,N
1502832736.0,286047004.8,N
1502832755.8,286047007.2,P
1502832775.6,286047004.8,N
1502832795.5,286047005.8,N
1502832815.3,286047002.9,N
1502832835.1,286047004.4,N
1502832855.9,286047004.1,N
1502832875.7,286047003.3,N
1502832895.5,286047005.8,P
1502832915.4,286047001.0,N
1502832935.2,286047000.9,N
1502832955.0,286047001.0,N
1502832955.9,286047001.0,N
1502832975.8,286047000.5,N
1502832995.6,286047000.7,N
1502833015.4,286047000.3,N
1502833035.3,286047000.2,N
1502833055.1,286047000.9,N
1502833056.0,286047000.9,N
1502833075.8,286046998.2,N
1502833095.7,286046998.8,N
1502833115.5,286047001.1,N
1502833135.3,286046998.2,N
1502833155.1,286046998.3,N
1502833175.9,286047001.2,N
1502833195.7,286047000.4,N
1502833215.5,286047000.4,N
1502833235.4,286046998.3,N
1502833255.2,286046999.6,N
1502833275.0,286046999.4,N
1502833275.9,286046999.4,N
1502833295.8,286047000.3,N
1502833315.6,286047002.5,N
1502833335.4,286047001.9,N
1502833355.3,286047003.4,N
1502833375.1,286047005.5,P
1502833376.0,286047005.5,N
1502833395.8,286047002.9,N
1502833415.7,286047003.1,N
1502833435.5,286047004.7,N
1502833455.3,286047005.1,N
1502833475.2,286047003.4,N
1502833495.9,286047004.8,P
1502833515.7,286047002.9,P
1502833535.6,286047003.9,P
1502833555.4,286047002.3,P
1502833575.2,286046996.7,P
1502833595.1,286046997.3,N
1502833596.0,286046997.3,N
1502833615.8,286046995.0,N
1502833635.6,286046995.6,N
1502833655.5,286046995.5,N
1502833675.3,286046997.5,N
1502833695.1,286046999.2,N
1502833715.9,286046999.5,N
1502833735.7,286046996.7,N
1502833755.5,286046997.1,N
1502833775.3,286046999.4,N
1502833795.2,286046998.4,N
1502833815.0,286047001.2,N
1502833815.9,286047001.2,N
1502833835.7,286046998.7,N
1502833855.6,286046998.6,N
1502833875.4,286047001.0,N
1502833895.2,286047000.7,N
1502833915.1,286047001.0,N
1502833916.0,286047001.0,N
1502833935.8,286047000.0,N
1502833955.6,286047002.6,N
1502833975.5,286047002.0,N
1502833995.3,286046999.7,N
1502834015.1,286047002.8,N
1502834035.9,286047001.9,N
1502834055.7,286047001.5,N
1502834075.5,286047000.6,N
1502834095.4,286047001.2,N
1502834115.2,286047001.2,N
1502834135.0,286046998.2,N
1502834135.9,286046998.2,N
1502834155.8,286046999.4,N
1502834175.6,286047000.9,N
1502834195.4,286047001.3,N
1502834215.2,286047002.1,N
1502834235.1,286047001.4,N
1502834236.0,286047001.4,N
1502834255.8,286047002.4,N
1502834275.6,286047002.6,N
1502834295.5,286047001.9,N
1502834315.3,286047002.4,N
1502834335.1,286047002.7,N
1502834355.9,286047004.0,P
1502834375.7,286047001.6,N
1502834395.5,286047001.7,N
